Location: Stillwell
(40.4602°N, 82.0928°W)
Time: 05:15:54
(UTC-04:00)

SJ-6B - Pass Details

Date: 25 May 2018
Orbit: 512 x 581 km, 97.7° (Epoch: 19 October)

Event Time Altitude Azimuth Distance (km) Brightness Sun altitude
Rises 21:13:49 0° 182° (S) 2,612 6.0 -5.2°
Reaches altitude 10° 21:15:59 10° 190° (S) 1,728 5.1 -5.5°
Maximum altitude 21:19:30 40° 261° (W) 767 4.0 -6.1°
Drops below altitude 10° 21:23:03 10° 332° (NNW) 1,745 6.5 -6.6°
Sets 21:25:15 0° 340° (NNW) 2,641 7.3 -7.0°
